Location: Harwich
(41.7160°N, 69.9939°W)
Time: 01:17:55
(UTC+02:00)

AO-7 - Pass Details

Date: 17 September 2024
Orbit: 1440 x 1458 km, 102.0° (Epoch: 10 October)

Event Time Altitude Azimuth Distance (km) Brightness Sun altitude
Rises 11:43:20 0° 22° (NNE) 4,573 ? -8.1°
Reaches altitude 10° 11:46:18 10° 28° (NNE) 3,590 ? -7.6°
Maximum altitude 11:54:19 48° 101° (ESE) 1,839 ? -6.1°
Drops below altitude 10° 12:02:15 10° 174° (S) 3,561 ? -4.7°
Sets 12:05:10 0° 180° (S) 4,533 ? -4.1°
